Probability
0 0 0 0 0 0 0 0 0 0 0 0 0 0 0 0 0 0 0 0 0 0 0 0 0 0 0 0 0 0 0 0 0 0 0 0 0 0 0 0 0 0 0
0 0 0 0 0 0 0 0 0 0 0 0 0 0 0 0 0 0 0 0 0 0 0 0 0 0 0 0 0 0 0 0 0 0 0 0 0 0 0 0 0 0 0
0 0 0 0 0 0 0 0 0 0 0 0 0 0 0 0 0 0 0 0 0 0 0 0 0 0 0 0 0 0 0 0 0 0 0 0 0 0 0 0 0 0 0
0 0 0 0 0 0 0 0 0 0 0 0 0 0 0 0 0 0 0 0 0 0 0 0 0 0 0 0 0 0 0 0 0 0 0 1 2 1 1 1 0 0 0
0 0 0 0 0 0 0 0 0 0 0 0 0 0 0 0 0 0 0 0 0 0 0 0 0 0 0 0 0 0 0 0 0 0 1 2 3 2 1 1 0 0 0
0 0 0 0 0 0 0 0 0 0 0 0 0 0 0 0 0 0 0 0 0 0 0 0 0 0 0 0 0 0 0 0 0 0 1 2 3 2 1 0 0 0 0
0 0 0 0 0 0 0 0 0 0 0 0 0 0 0 0 0 0 0 0 0 0 0 0 0 0 0 0 0 0 0 0 0 0 0 1 2 2 1 0 0 0 0
0 0 0 0 0 0 0 0 0 0 0 0 0 0 0 0 0 0 0 0 0 0 0 0 0 0 0 0 0 0 0 0 0 0 0 0 1 1 1 0 0 0 0
0 0 0 0 0 0 0 0 0 0 0 0 0 0 0 0 0 0 0 0 0 0 0 0 0 0 0 0 0 0 0 0 0 0 0 0 0 0 0 0 0 0 0
0 0 0 0 0 0 0 0 0 0 0 0 0 0 0 0 0 0 0 0 0 0 0 0 0 0 0 0 0 0 0 0 0 0 0 0 0 0 0 0 0 0 0
0 0 0 0 0 0 0 0 0 0 0 0 0 0 0 0 0 0 0 0 0 0 0 0 0 0 0 0 0 0 0 0 0 0 0 0 0 0 0 0 0 0 0
0 0 0 0 0 0 0 0 0 0 0 0 0 0 0 0 0 0 0 0 0 0 0 0 0 0 0 0 0 0 0 0 0 0 0 0 0 0 0 0 0 0 0
0 0 0 0 0 0 0 0 0 0 0 0 0 0 0 0 0 0 0 0 0 0 0 0 0 0 0 0 0 0 0 0 0 0 0 0 0 0 0 0 0 0 0
0 0 0 0 0 0 0 0 0 0 0 0 0 0 0 0 0 0 0 0 0 0 0 0 0 0 0 0 0 0 0 0 0 0 0 0 0 0 0 0 0 0 0
0 0 0 0 0 0 0 0 0 0 0 0 0 0 0 0 0 0 0 0 0 0 0 0 0 0 0 0 0 0 0 0 0 0 0 0 0 0 0 0 0 0 0
0 0 0 0 0 0 0 0 0 0 0 0 0 0 0 0 0 0 0 0 0 0 0 0 0 0 0 0 0 0 0 0 0 0 0 0 0 0 0 0 0 0 0
0 0 0 0 0 0 0 0 0 0 0 0 0 0 0 0 0 0 0 0 0 0 0 0 0 0 0 0 0 0 0 0 0 0 0 0 0 0 0 0 0 0 0
0 0 0 0 0 0 0 0 0 0 0 0 0 0 0 0 0 0 0 0 0 0 0 0 0 0 0 0 0 0 0 0 0 0 0 0 0 0 0 0 0 0 0
0 0 0 0 0 0 0 0 0 0 0 0 0 0 0 0 0 0 0 0 0 0 0 0 0 0 0 0 0 0 0 0 0 0 0 0 0 0 0 0 0 0 0
0 0 0 0 0 0 0 0 0 0 0 0 0 0 0 0 0 0 0 0 0 0 0 0 0 0 0 0 0 0 0 0 0 0 0 0 0 0 0 0 0 0 0
0 0 0 0 0 0 0 0 0 0 0 0 0 0 0 0 0 0 0 0 0 0 0 0 0 0 0 0 0 0 0 0 0 0 0 0 0 0 0 0 0 0 0
0 0 0 0 0 0 0 0 0 0 0 0 0 0 0 0 0 0 0 0 0 0 0 0 0 0 0 0 0 0 0 0 0 0 0 0 0 0 0 0 0 0 0
0 0 0 0 0 0 0 0 0 0 0 0 0 0 0 0 0 0 0 0 0 0 0 0 0 0 0 0 0 0 0 0 0 0 0 0 0 0 0 0 0 0 0
0 0 0 0 0 0 0 0 0 0 0 0 0 0 0 0 0 0 0 0 0 0 0 0 0 0 0 0 0 0 0 0 0 0 0 0 0 0 0 0 0 0 0
0 0 0 0 0 0 0 0 0 0 0 0 0 0 0 0 0 0 0 0 0 0 0 0 0 0 0 0 0 0 0 0 0 0 0 0 0 0 0 0 0 0 0
0 0 0 0 0 0 0 0 0 0 0 0 0 0 0 0 0 0 0 0 0 0 0 0 0 0 0 0 0 0 0 0 0 0 0 0 0 0 0 0 0 0 0
Wind_Speed
4 4 4 4 5 5 5 6 6 6 6 6 7 7 7 7 6 5 6 6 6 7 6 6 7 5 4 3 3 3 3 3 4 3 1 1 3 6 5 5 5 5 4
4 4 4 5 5 5 6 7 6 7 7 7 7 7 8 8 7 6 7 7 7 7 7 7 8 6 5 4 3 4 4 4 3 4 2 2 3 6 7 7 5 5 4
4 4 4 5 6 6 7 7 7 7 7 7 7 7 8 8 8 8 8 8 8 8 8 8 8 7 7 5 5 5 4 4 3 3 3 2 3 5 7 6 6 5 5
4 4 5 6 6 7 7 7 7 7 7 7 7 8 8 9 9 9 9 9 9 9 8 8 8 8 8 7 6 6 5 4 4 4 3 3 5 5 6 6 5 3 4
4 5 6 7 6 6 6 7 7 7 8 7 7 8 8 8 8 9 9 9 8 9 8 8 9 11 13 10 7 6 6 5 4 4 4 3 5 7 7 5 6 5 3
5 6 6 6 6 6 7 7 7 7 7 7 8 8 9 9 11 14 11 8 7 8 8 8 8 10 12 14 14 12 10 7 6 5 4 5 6 7 6 8 8 7 5
5 6 6 6 7 7 7 7 7 8 7 8 8 8 9 11 15 16 17 10 8 8 9 8 9 9 9 7 10 13 12 13 11 7 6 7 7 8 9 10 9 7 4
6 6 6 6 7 8 7 8 8 7 7 8 8 9 9 11 14 15 16 11 8 9 9 9 9 8 8 8 7 6 7 8 9 7 6 6 6 7 10 10 10 7 6
6 6 7 7 8 8 8 9 8 7 8 8 8 9 9 10 13 14 13 6 7 9 9 9 9 9 12 13 8 7 6 6 7 9 8 7 8 10 9 9 10 10 7
6 7 7 7 8 9 9 9 8 7 8 8 8 8 8 9 11 13 11 5 6 7 6 7 12 12 13 13 9 8 8 6 5 6 6 7 7 10 14 12 12 11 9
6 6 7 7 8 9 8 7 8 8 8 7 8 8 7 8 9 11 9 4 5 5 5 5 6 12 13 14 12 8 9 7 6 6 6 5 5 6 9 9 8 10 10
6 6 8 8 8 9 8 9 8 7 8 7 7 7 5 5 6 7 8 7 6 5 5 4 5 9 11 12 10 9 11 8 4 5 5 5 6 6 7 8 8 7 5
6 7 8 9 8 8 8 9 8 7 6 6 5 5 5 4 4 7 6 6 7 4 3 4 5 7 7 7 10 11 10 5 5 5 6 5 5 6 6 6 7 6 6
6 7 7 8 9 8 7 6 6 7 6 6 5 5 5 4 3 3 3 3 3 3 2 2 3 4 3 4 5 7 6 5 5 5 5 4 4 5 6 6 6 8 7
6 7 7 7 8 8 8 7 7 7 7 7 6 5 4 4 4 4 2 2 2 2 1 1 1 1 2 3 3 4 4 5 5 4 4 4 5 5 5 6 6 8 7
6 6 6 7 7 7 8 9 10 10 11 11 10 7 5 6 6 5 4 3 3 3 1 1 2 3 3 4 4 4 4 5 5 4 4 4 5 6 6 5 6 8 8
6 7 6 6 7 7 7 7 9 9 9 8 8 8 8 7 6 5 4 3 3 1 1 2 2 3 3 3 4 4 4 5 5 5 4 4 5 5 6 6 7 8 8
6 8 8 6 7 7 7 7 6 7 7 6 5 5 6 6 6 4 3 2 2 2 2 3 3 3 3 4 4 4 4 4 4 4 4 5 5 6 6 6 7 8 8
5 5 6 6 6 6 7 6 6 6 5 5 4 3 3 3 3 4 2 2 3 3 3 4 4 4 3 4 4 4 4 4 4 5 5 5 6 6 6 6 7 10 9
5 10 10 7 7 6 6 6 5 5 5 4 4 3 1 1 2 3 3 4 4 4 4 4 4 4 3 3 4 4 4 4 5 4 5 5 6 6 7 8 8 9 8
4 7 12 8 6 6 6 6 5 5 5 5 4 3 3 3 3 4 4 4 4 5 4 4 4 4 4 3 3 4 5 4 5 5 5 6 6 6 6 7 8 8 8
3 5 5 6 6 6 6 5 5 4 5 5 4 4 4 3 3 3 3 3 4 4 4 4 3 3 3 4 4 4 4 5 5 5 5 6 6 6 7 7 8 8 8
4 5 6 6 5 7 7 5 4 4 4 4 4 4 3 3 3 3 3 3 3 3 3 3 3 2 2 2 3 4 5 5 5 6 6 6 6 7 7 8 10 10 10
4 5 5 6 5 5 5 5 5 4 4 4 4 4 4 3 3 3 3 2 2 2 2 1 2 2 2 1 1 2 2 3 4 5 8 8 7 7 7 8 9 11 10
3 4 4 4 5 5 5 5 5 4 4 4 4 4 4 3 3 3 3 2 2 2 2 1 0 0 1 2 2 2 2 3 3 3 5 6 7 8 8 9 9 10 9
3 3 3 4 4 4 4 5 5 5 4 4 4 4 4 4 4 3 3 3 2 2 2 1 2 3 4 4 4 4 3 2 3 4 4 5 7 7 8 8 11 10 11
Wind_Direction
269 268 275 275 272 268 265 265 264 266 267 268 269 272 273 274 271 267 264 265 258 259 256 247 248 244 243 243 238 231 222 214 243 267 244 166 134 138 127 116 113 113 124
261 264 267 270 272 271 268 264 261 262 262 259 260 262 265 268 264 263 265 269 258 256 255 250 250 249 241 233 229 232 228 218 218 252 240 174 142 150 138 128 120 111 109
265 266 275 280 278 274 269 267 264 261 263 263 259 258 260 261 260 258 255 258 255 251 247 243 244 241 244 235 226 227 225 228 216 225 232 187 148 147 133 119 116 111 107
271 275 278 277 273 269 269 269 266 262 262 262 258 255 255 256 256 256 255 253 254 253 246 240 237 231 234 232 227 223 218 217 216 219 220 189 162 151 142 139 136 123 115
282 282 278 276 277 276 276 274 273 268 268 260 259 259 256 255 256 252 248 254 251 253 251 242 238 237 236 232 225 214 208 210 209 211 211 193 174 165 161 151 148 135 100
285 284 282 286 289 285 282 281 281 275 271 268 263 261 259 264 265 260 252 248 245 245 250 247 245 248 248 243 235 224 207 202 204 207 207 201 192 175 159 155 152 152 147
290 289 292 293 292 288 289 291 285 280 275 274 269 264 261 261 261 260 258 249 239 240 241 241 249 247 239 234 238 234 224 216 205 201 208 202 190 177 165 164 168 158 143
297 296 295 295 294 293 291 287 283 278 277 275 274 269 266 269 265 260 259 252 241 239 237 233 231 236 234 222 222 224 220 218 212 208 211 210 197 182 175 166 156 129 107
297 297 296 296 297 298 295 290 285 283 282 277 273 272 270 273 271 266 261 246 240 241 238 234 226 226 229 220 212 214 219 226 224 215 207 210 203 185 167 150 152 152 148
288 290 294 295 295 295 292 288 285 282 280 281 279 274 269 274 277 273 262 240 239 242 240 236 231 225 225 216 206 203 212 216 202 201 204 203 201 186 176 173 167 165 154
282 291 297 297 295 292 289 288 290 290 289 285 284 281 277 275 283 280 268 236 231 236 234 232 231 225 222 215 203 200 208 198 190 193 193 190 187 186 183 181 178 170 165
290 297 299 299 300 307 300 297 295 291 290 289 288 288 283 282 284 284 274 249 233 230 235 227 224 225 217 210 206 206 203 192 175 179 185 192 191 190 188 183 181 178 158
301 301 301 303 302 300 298 298 301 296 288 288 284 283 287 288 292 297 284 263 248 232 234 236 228 227 209 204 207 199 188 181 173 182 190 195 192 186 177 173 166 149 126
301 302 301 305 306 307 302 294 294 294 291 287 283 280 282 286 289 300 297 284 267 245 248 245 229 222 202 191 190 191 184 179 176 186 187 186 176 173 178 172 167 158 144
301 300 303 302 302 306 303 295 291 282 272 272 273 264 270 280 277 278 273 270 258 240 224 185 172 178 184 184 184 179 179 179 183 181 173 171 175 176 176 173 164 158 157
302 304 304 306 306 304 305 307 300 289 287 275 260 252 253 255 278 281 277 278 276 249 199 192 197 192 195 191 184 184 185 188 185 179 176 173 177 177 174 169 167 165 162
292 297 301 302 304 305 304 305 309 311 305 292 279 260 245 257 269 273 276 284 277 242 217 233 227 208 204 196 189 186 189 191 182 177 175 179 176 171 170 173 174 169 166
297 299 301 296 299 301 300 300 299 302 312 314 301 275 257 252 256 260 270 289 275 237 227 232 236 228 214 204 196 193 194 186 182 183 181 183 176 169 171 175 178 172 164
300 299 300 297 298 296 298 300 299 301 302 305 308 306 269 252 254 254 236 230 243 245 236 236 237 233 222 209 203 194 187 184 182 179 183 182 175 169 172 175 174 168 162
298 306 311 302 300 303 305 306 306 306 307 306 304 293 265 222 255 246 227 232 242 249 247 241 236 233 224 211 199 190 184 185 183 183 183 180 176 172 172 171 170 169 171
297 306 312 310 302 302 305 305 304 307 308 305 299 286 252 239 253 257 246 236 237 245 248 245 233 225 219 206 197 194 190 188 186 183 180 178 175 173 171 168 168 169 167
294 295 298 301 302 306 308 304 305 311 315 315 312 308 285 263 265 270 260 251 245 242 241 240 239 223 208 200 195 189 188 189 189 181 175 172 172 170 166 165 166 166 166
297 298 302 304 305 313 318 317 315 319 320 320 317 315 307 290 284 284 282 275 270 263 254 240 241 242 224 197 190 186 187 192 190 180 173 169 167 167 165 165 167 168 170
295 297 302 309 312 317 318 321 322 325 329 332 332 328 324 316 309 305 299 292 291 291 285 255 235 224 205 167 159 169 178 177 171 174 170 167 167 167 166 166 168 171 170
299 307 313 314 318 318 321 324 325 329 335 336 335 333 330 333 331 325 319 314 309 312 319 310 279 128 122 116 107 105 121 140 150 154 159 162 166 167 168 167 167 166 165
313 327 329 325 326 325 326 329 331 333 336 335 336 335 338 342 340 336 336 343 341 341 356 17 73 90 92 89 90 98 106 121 147 161 159 158 163 167 166 166 166 167 167